MM0ZFG-5 Weather Reports


Display with metric or nautical units.
time (UTC)temp
F
wind
direction
speed
MPH
gust
MPH
rain 1hr
in
rain 24hr
in
rain mn
in
humidity
%
barometer
mb
20260506083605 44 154 2.0 6.0 0.00 0.00 0.00 66 1013.7
20260506082704 44 87 2.0 6.0 0.00 0.00 0.00 67 1013.8
20260506081805 44 73 2.0 6.0 0.00 0.00 0.00 68 1013.6
20260506080905 44 68 2.0 9.0 0.00 0.00 0.00 66 1013.6
20260506072703 44 82 2.0 7.0 0.00 0.00 0.00 69 1013.7
20260506071804 44 67 1.0 7.0 0.00 0.00 0.00 71 1013.5
20260506070905 44 33 2.0 7.0 0.00 0.00 0.00 69 1013.6
20260506061803 42 42 2.0 6.0 0.00 0.00 0.00 72 1013.7
20260506060904 42 32 1.0 4.0 0.00 0.00 0.00 72 1013.5
20260506050904 41 337 1.0 3.0 0.00 0.00 0.00 75 1013.6
20260506044503 41 338 1.0 3.0 0.00 0.00 0.00 75 1013.5
20260506043604 41 333 1.0 3.0 0.00 0.00 0.00 75 1013.6
20260506042704 41 335 1.0 3.0 0.00 0.00 0.00 74 1013.6
20260506041804 41 346 0.0 2.0 0.00 0.00 0.00 74 1013.8
20260506040904 41 345 1.0 2.0 0.00 0.00 0.00 73 1013.8
20260506040024 41 344 0.0 2.0 0.00 0.00 0.00 73 1013.7
20260506035404 42 342 0.0 2.0 0.00 0.00 0.00 73 1013.6
20260506034504 41 348 1.0 4.0 0.00 0.00 0.00 73 1013.8
20260506033624 42 346 1.0 3.0 0.00 0.00 0.00 72 1013.7
20260506032705 42 337 1.0 4.0 0.00 0.00 0.00 72 1013.7
20260506031804 42 344 2.0 7.0 0.00 0.00 0.00 72 1013.6
20260506030903 42 27 2.0 6.0 0.00 0.00 0.00 72 1013.9
20260506030004 42 4 2.0 6.0 0.00 0.00 0.00 72 1014.0
20260506025403 42 350 1.0 3.0 0.00 0.00 0.00 72 1013.9
20260506024503 42 360 1.0 3.0 0.00 0.00 0.00 72 1013.9
20260506023603 42 1 1.0 4.0 0.00 0.00 0.00 72 1013.9
20260506022703 42 342 1.0 6.0 0.00 0.00 0.00 72 1013.9
20260506021804 42 351 1.0 3.0 0.00 0.00 0.00 73 1013.9
20260506020903 42 333 1.0 4.0 0.00 0.00 0.00 72 1013.8
20260506020004 42 339 1.0 3.0 0.00 0.00 0.00 72 1013.9
20260506015404 42 338 1.0 3.0 0.00 0.00 0.00 72 1013.9
20260506014503 42 352 1.0 4.0 0.00 0.00 0.00 72 1013.9
20260506013603 43 14 2.0 6.0 0.00 0.00 0.00 71 1014.1
20260506012703 43 1 2.0 4.0 0.00 0.00 0.00 71 1014.2
20260506011804 43 10 2.0 10.0 0.00 0.00 0.00 71 1014.0
20260506010904 43 11 2.0 10.0 0.00 0.00 0.00 72 1014.0
20260506010004 43 9 1.0 3.0 0.00 0.00 0.00 73 1014.1
20260506005403 43 359 1.0 3.0 0.00 0.00 0.00 73 1014.3
20260506004505 43 8 1.0 3.0 0.00 0.00 0.00 73 1014.4
20260506003626 43 7 2.0 4.0 0.00 0.00 0.00 73 1014.3
20260506002703 43 346 1.0 4.0 0.00 0.00 0.00 73 1014.4
20260506001803 43 336 1.0 4.0 0.00 0.00 0.00 73 1014.3
20260506000905 43 334 1.0 3.0 0.00 0.00 0.00 73 1014.5
20260506000004 43 358 2.0 3.0 0.00 0.00 0.00 73 1014.3
20260505235403 43 342 1.0 3.0 0.00 0.00 0.00 73 1014.4
20260505234503 43 9 1.0 3.0 0.00 0.00 0.00 73 1014.4
20260505233603 43 342 1.0 3.0 0.00 0.00 0.00 73 1014.2
20260505232703 43 354 1.0 6.0 0.00 0.00 0.00 73 1014.2
20260505231805 44 354 1.0 3.0 0.00 0.00 0.00 72 1014.2
20260505230924 44 344 0.0 2.0 0.00 0.00 0.00 72 1014.3
20260505230003 44 343 1.0 3.0 0.00 0.00 0.00 71 1014.3
20260505225405 44 343 1.0 3.0 0.00 0.00 0.00 70 1014.6
20260505224503 44 345 1.0 4.0 0.00 0.00 0.00 69 1014.7
20260505223603 44 353 2.0 9.0 0.00 0.00 0.00 69 1014.6
20260505222703 44 5 2.0 7.0 0.00 0.00 0.00 69 1014.6
20260505221803 44 348 1.0 4.0 0.00 0.00 0.00 69 1014.5
20260505220903 44 3 2.0 7.0 0.00 0.00 0.00 69 1014.5
20260505220004 44 26 3.0 7.0 0.00 0.00 0.00 69 1014.6
20260505215403 44 11 2.0 7.0 0.00 0.00 0.00 69 1014.7
20260505214525 44 355 1.0 4.0 0.00 0.00 0.00 69 1014.5
20260505213627 44 11 1.0 6.0 0.00 0.00 0.00 69 1014.4
20260505212724 44 19 2.0 6.0 0.00 0.00 0.00 69 1014.5
20260505211824 44 359 2.0 7.0 0.00 0.00 0.00 69 1014.2
20260505210903 44 34 3.0 8.0 0.00 0.00 0.00 69 1014.3
20260505210004 45 35 2.0 8.0 0.00 0.00 0.00 70 1014.2
20260505205425 45 27 2.0 8.0 0.00 0.00 0.00 70 1014.3
20260505204505 45 55 3.0 8.0 0.00 0.00 0.00 69 1014.1
20260505203603 45 55 3.0 13.0 0.00 0.00 0.00 68 1014.2
20260505202704 45 2 2.0 9.0 0.00 0.00 0.00 68 1014.1
20260505201803 45 34 3.0 10.0 0.00 0.00 0.00 68 1014.1
20260505200926 45 36 3.0 10.0 0.00 0.00 0.00 67 1013.9
20260505200004 46 46 3.0 9.0 0.00 0.00 0.00 68 1013.9
20260505195403 46 44 3.0 11.0 0.00 0.00 0.00 68 1013.8
20260505194525 46 40 2.0 11.0 0.00 0.00 0.00 68 1013.7
20260505193624 46 58 3.0 9.0 0.00 0.00 0.00 68 1013.6
20260505192704 46 45 4.0 13.0 0.00 0.00 0.00 69 1013.7
20260505191803 46 64 3.0 10.0 0.00 0.00 0.00 69 1013.6
20260505190903 46 52 3.0 8.0 0.00 0.00 0.00 71 1013.5
20260505190005 47 35 4.0 10.0 0.00 0.00 0.00 71 1013.6
20260505185403 47 55 5.0 11.0 0.00 0.00 0.00 72 1013.3
20260505184503 47 53 4.0 11.0 0.00 0.00 0.00 70 1013.3
20260505183626 47 60 4.0 10.0 0.00 0.00 0.00 67 1013.3
20260505182704 48 51 5.0 13.0 0.00 0.00 0.00 66 1013.2
20260505181805 48 65 4.0 11.0 0.00 0.00 0.00 67 1013.2
20260505180904 49 74 4.0 10.0 0.00 0.00 0.00 67 1013.1
20260505180004 49 77 4.0 9.0 0.00 0.00 0.00 67 1013.1
20260505175404 49 67 4.0 14.0 0.00 0.00 0.00 67 1012.8
20260505174504 49 51 6.0 17.0 0.00 0.00 0.00 67 1012.8
20260505173604 49 41 4.0 15.0 0.00 0.00 0.00 68 1012.9
20260505172725 50 61 6.0 15.0 0.00 0.00 0.00 67 1012.8
20260505171804 50 59 6.0 15.0 0.00 0.00 0.00 66 1012.8
20260505170903 51 63 5.0 14.0 0.00 0.00 0.00 65 1012.9
20260505170004 51 52 4.0 9.0 0.00 0.00 0.00 63 1012.6
20260505165403 51 63 4.0 13.0 0.00 0.00 0.00 64 1012.6
20260505164503 52 88 3.0 10.0 0.00 0.00 0.00 65 1012.6
20260505163604 52 109 3.0 10.0 0.00 0.00 0.00 64 1012.6
20260505162725 53 102 3.0 10.0 0.00 0.00 0.00 63 1012.5
20260505161804 54 152 3.0 8.0 0.00 0.00 0.00 62 1012.4
20260505160903 54 139 3.0 9.0 0.00 0.00 0.00 63 1012.3
20260505152703 55 111 4.0 13.0 0.00 0.00 0.00 60 1012.4
20260505151804 56 75 5.0 13.0 0.00 0.00 0.00 57 1012.3
20260505150904 56 82 5.0 11.0 0.00 0.00 0.00 55 1012.3
20260505124524 56 199 1.0 3.0 0.00 0.00 0.00 50 1012.3
20260505123604 56 203 2.0 3.0 0.00 0.00 0.00 51 1012.2
20260505122703 55 205 2.0 4.0 0.00 0.00 0.00 53 1012.2
20260505121803 55 214 3.0 4.0 0.00 0.00 0.00 54 1012.2
20260505120903 55 228 3.0 4.0 0.00 0.00 0.00 54 1012.2
20260505120024 55 236 3.0 4.0 0.00 0.00 0.00 54 1012.5
20260505115403 55 184 2.0 3.0 0.00 0.00 0.00 54 1012.3
20260505114526 55 192 2.0 4.0 0.00 0.00 0.00 54 1012.3
20260505113624 56 188 2.0 6.0 0.00 0.00 0.00 55 1012.4
20260505112703 54 198 3.0 7.0 0.00 0.00 0.00 57 1012.4
20260505111803 53 196 1.0 3.0 0.00 0.00 0.00 56 1012.4
20260505110925 53 211 1.0 3.0 0.00 0.00 0.00 53 1012.5
20260505101803 50 337 2.0 7.0 0.00 0.00 0.00 60 1012.6
20260505100903 49 337 3.0 7.0 0.00 0.00 0.00 64 1012.3
20260505100004 49 311 4.0 10.0 0.00 0.00 0.00 64 1012.3
20260505095424 49 299 4.0 10.0 0.00 0.00 0.00 64 1012.1
20260505094503 49 326 3.0 10.0 0.00 0.00 0.00 64 1012.2
20260505093603 49 328 2.0 8.0 0.00 0.00 0.00 64 1012.2
20260505092703 49 321 2.0 6.0 0.00 0.00 0.00 64 1012.4
20260505091804 49 324 4.0 9.0 0.00 0.00 0.00 64 1012.3
20260505090904 48 331 4.0 9.0 0.00 0.00 0.00 65 1012.3
20260505090004 48 324 4.0 9.0 0.00 0.00 0.00 65 1012.2
20260505085405 48 304 3.0 7.0 0.00 0.00 0.00 73 1012.3
20260505084525 48 279 2.0 6.0 0.00 0.00 0.00 73 1012.2